Precipitable_Water
0.34 0.33 0.32 0.34 0.33 0.32 0.31 0.30 0.28 0.26 0.26 0.26 0.26 0.26 0.25 0.25 0.23 0.19 0.16 0.22 0.18 0.17 0.19 0.23 0.24 0.20 0.21 0.20 0.18 0.23 0.21 0.23 0.22 0.18 0.15 0.13 0.10 0.11 0.11 0.13 0.12 0.13 0.13 0.13 0.14 0.11 0.09 0.17 0.16 0.11 0.17 0.19 0.19 0.21
0.32 0.36 0.36 0.33 0.31 0.30 0.29 0.29 0.27 0.28 0.27 0.28 0.28 0.28 0.27 0.26 0.24 0.21 0.15 0.20 0.21 0.15 0.16 0.24 0.26 0.29 0.29 0.28 0.23 0.23 0.22 0.20 0.23 0.18 0.16 0.15 0.11 0.13 0.15 0.11 0.16 0.12 0.15 0.13 0.13 0.13 0.19 0.21 0.20 0.22 0.22 0.20 0.22 0.23
0.36 0.37 0.34 0.31 0.29 0.28 0.28 0.29 0.30 0.30 0.30 0.29 0.28 0.28 0.29 0.27 0.26 0.22 0.18 0.20 0.20 0.16 0.15 0.18 0.17 0.27 0.32 0.33 0.35 0.21 0.22 0.23 0.22 0.23 0.20 0.19 0.15 0.17 0.13 0.14 0.15 0.18 0.20 0.18 0.16 0.18 0.19 0.21 0.23 0.24 0.24 0.23 0.24 0.25
0.37 0.35 0.32 0.28 0.29 0.29 0.30 0.30 0.31 0.31 0.30 0.29 0.29 0.28 0.28 0.27 0.27 0.24 0.19 0.23 0.21 0.17 0.11 0.15 0.25 0.22 0.29 0.31 0.32 0.33 0.29 0.27 0.25 0.23 0.18 0.17 0.15 0.17 0.15 0.15 0.15 0.16 0.16 0.15 0.15 0.17 0.19 0.22 0.24 0.25 0.25 0.26 0.25 0.26
0.34 0.35 0.32 0.30 0.29 0.29 0.30 0.31 0.30 0.29 0.29 0.29 0.28 0.28 0.27 0.26 0.27 0.26 0.26 0.26 0.26 0.17 0.13 0.14 0.20 0.21 0.24 0.25 0.24 0.25 0.24 0.23 0.23 0.19 0.18 0.16 0.17 0.16 0.16 0.15 0.14 0.17 0.16 0.15 0.15 0.19 0.19 0.20 0.23 0.26 0.25 0.24 0.25 0.24
0.31 0.29 0.27 0.28 0.29 0.28 0.26 0.28 0.29 0.28 0.28 0.27 0.27 0.28 0.26 0.26 0.27 0.24 0.18 0.27 0.27 0.25 0.16 0.11 0.18 0.17 0.19 0.21 0.20 0.20 0.21 0.21 0.20 0.18 0.16 0.17 0.18 0.16 0.13 0.13 0.16 0.18 0.19 0.19 0.17 0.20 0.20 0.21 0.22 0.23 0.22 0.23 0.23 0.22
0.27 0.27 0.28 0.28 0.28 0.27 0.27 0.28 0.28 0.27 0.27 0.26 0.27 0.25 0.26 0.27 0.25 0.17 0.15 0.23 0.26 0.26 0.17 0.12 0.12 0.17 0.20 0.20 0.20 0.20 0.22 0.21 0.20 0.18 0.16 0.17 0.17 0.17 0.15 0.13 0.15 0.16 0.18 0.18 0.19 0.19 0.17 0.19 0.18 0.20 0.20 0.20 0.20 0.20
0.28 0.29 0.28 0.28 0.27 0.27 0.28 0.28 0.28 0.27 0.25 0.24 0.24 0.25 0.25 0.25 0.25 0.21 0.27 0.29 0.25 0.20 0.18 0.12 0.12 0.14 0.19 0.15 0.14 0.18 0.16 0.19 0.17 0.17 0.17 0.15 0.16 0.16 0.12 0.13 0.14 0.16 0.17 0.17 0.17 0.18 0.18 0.19 0.19 0.19 0.19 0.19 0.18 0.18
0.29 0.29 0.29 0.30 0.28 0.28 0.29 0.28 0.27 0.25 0.21 0.21 0.21 0.23 0.23 0.19 0.17 0.20 0.28 0.26 0.25 0.21 0.14 0.14 0.11 0.10 0.18 0.16 0.17 0.17 0.17 0.13 0.16 0.14 0.15 0.16 0.13 0.11 0.12 0.13 0.14 0.15 0.15 0.15 0.17 0.18 0.18 0.17 0.17 0.17 0.17 0.17 0.17 0.16
0.29 0.29 0.31 0.31 0.31 0.30 0.29 0.29 0.25 0.22 0.20 0.20 0.19 0.15 0.12 0.19 0.25 0.21 0.18 0.16 0.16 0.18 0.18 0.12 0.14 0.11 0.14 0.13 0.13 0.12 0.14 0.12 0.11 0.13 0.16 0.13 0.11 0.14 0.14 0.15 0.16 0.16 0.17 0.17 0.16 0.15 0.16 0.16 0.16 0.16 0.16 0.16 0.15 0.15
0.32 0.31 0.32 0.32 0.30 0.29 0.29 0.27 0.24 0.20 0.20 0.15 0.13 0.13 0.20 0.22 0.17 0.14 0.11 0.11 0.13 0.12 0.14 0.13 0.13 0.10 0.16 0.10 0.10 0.13 0.11 0.12 0.09 0.10 0.10 0.10 0.09 0.12 0.14 0.14 0.15 0.16 0.16 0.16 0.16 0.16 0.16 0.15 0.14 0.13 0.13 0.13 0.13 0.13
0.32 0.33 0.33 0.31 0.29 0.29 0.28 0.26 0.23 0.18 0.18 0.17 0.19 0.22 0.18 0.14 0.12 0.10 0.09 0.11 0.10 0.09 0.12 0.11 0.11 0.12 0.14 0.16 0.12 0.14 0.10 0.11 0.08 0.13 0.11 0.08 0.10 0.13 0.14 0.14 0.15 0.16 0.16 0.15 0.15 0.14 0.14 0.14 0.14 0.13 0.13 0.12 0.12 0.12
0.33 0.34 0.31 0.30 0.29 0.29 0.28 0.25 0.21 0.20 0.21 0.19 0.13 0.11 0.11 0.11 0.07 0.06 0.05 0.07 0.08 0.11 0.12 0.11 0.09 0.12 0.14 0.15 0.11 0.11 0.10 0.09 0.13 0.09 0.08 0.09 0.12 0.14 0.14 0.14 0.14 0.14 0.14 0.14 0.14 0.14 0.13 0.13 0.13 0.12 0.11 0.11 0.11 0.10
0.28 0.31 0.32 0.29 0.29 0.28 0.27 0.24 0.19 0.19 0.15 0.09 0.08 0.06 0.07 0.07 0.07 0.08 0.08 0.08 0.12 0.12 0.12 0.11 0.10 0.10 0.13 0.11 0.11 0.08 0.11 0.11 0.08 0.07 0.07 0.11 0.13 0.14 0.14 0.14 0.14 0.13 0.13 0.13 0.12 0.12 0.12 0.12 0.11 0.11 0.11 0.10 0.10 0.09
0.29 0.29 0.29 0.28 0.27 0.27 0.25 0.21 0.18 0.18 0.13 0.08 0.09 0.05 0.07 0.10 0.11 0.11 0.11 0.11 0.12 0.14 0.12 0.10 0.10 0.11 0.11 0.10 0.11 0.10 0.09 0.08 0.08 0.08 0.10 0.13 0.14 0.14 0.13 0.12 0.12 0.11 0.11 0.11 0.11 0.10 0.10 0.10 0.10 0.10 0.10 0.10 0.09 0.08
0.30 0.28 0.27 0.28 0.26 0.26 0.22 0.18 0.17 0.17 0.13 0.11 0.09 0.08 0.10 0.09 0.09 0.10 0.10 0.10 0.13 0.13 0.13 0.11 0.09 0.09 0.09 0.09 0.09 0.08 0.08 0.07 0.08 0.11 0.12 0.13 0.13 0.13 0.12 0.11 0.11 0.11 0.10 0.10 0.10 0.09 0.09 0.09 0.08 0.08 0.09 0.08 0.08 0.07
0.26 0.23 0.27 0.26 0.25 0.23 0.18 0.15 0.15 0.11 0.10 0.09 0.08 0.11 0.11 0.10 0.10 0.10 0.11 0.11 0.13 0.12 0.10 0.10 0.07 0.07 0.09 0.07 0.07 0.09 0.08 0.09 0.11 0.11 0.13 0.13 0.13 0.12 0.11 0.10 0.10 0.09 0.09 0.09 0.08 0.07 0.07 0.07 0.07 0.07 0.06 0.07 0.07 0.07
0.22 0.24 0.24 0.25 0.22 0.17 0.15 0.15 0.12 0.10 0.08 0.09 0.09 0.10 0.12 0.12 0.11 0.11 0.12 0.12 0.11 0.11 0.11 0.10 0.10 0.07 0.06 0.06 0.07 0.09 0.11 0.12 0.13 0.13 0.13 0.13 0.12 0.10 0.10 0.09 0.09 0.09 0.08 0.07 0.07 0.07 0.07 0.06 0.06 0.06 0.06 0.07 0.07 0.07
0.21 0.23 0.22 0.22 0.18 0.13 0.10 0.11 0.12 0.07 0.09 0.10 0.11 0.12 0.12 0.12 0.12 0.12 0.12 0.12 0.12 0.13 0.12 0.11 0.08 0.07 0.07 0.09 0.09 0.10 0.11 0.11 0.11 0.12 0.12 0.12 0.11 0.09 0.08 0.09 0.08 0.08 0.07 0.07 0.07 0.07 0.07 0.07 0.07 0.07 0.07 0.07 0.07 0.07
0.20 0.20 0.20 0.18 0.15 0.11 0.09 0.10 0.13 0.10 0.08 0.10 0.12 0.11 0.12 0.11 0.11 0.11 0.10 0.10 0.11 0.11 0.09 0.09 0.08 0.09 0.09 0.10 0.11 0.11 0.10 0.10 0.09 0.09 0.09 0.09 0.09 0.08 0.08 0.08 0.07 0.07 0.07 0.08 0.08 0.09 0.08 0.08 0.08 0.08 0.08 0.08 0.08 0.07
0.16 0.18 0.15 0.14 0.12 0.11 0.10 0.09 0.09 0.09 0.10 0.10 0.11 0.12 0.11 0.11 0.10 0.09 0.09 0.10 0.09 0.09 0.07 0.08 0.08 0.10 0.10 0.10 0.09 0.09 0.09 0.09 0.09 0.09 0.08 0.07 0.07 0.07 0.07 0.07 0.08 0.08 0.08 0.08 0.08 0.08 0.08 0.08 0.08 0.09 0.09 0.09 0.09 0.09
0.14 0.13 0.13 0.14 0.11 0.10 0.09 0.09 0.09 0.10 0.10 0.11 0.11 0.11 0.10 0.09 0.09 0.09 0.08 0.07 0.07 0.07 0.08 0.08 0.08 0.09 0.08 0.08 0.08 0.08 0.08 0.08 0.08 0.08 0.07 0.07 0.06 0.07 0.07 0.08 0.08 0.08 0.08 0.08 0.08 0.08 0.08 0.09 0.09 0.09 0.09 0.09 0.10 0.10
0.11 0.13 0.11 0.11 0.08 0.08 0.08 0.10 0.09 0.10 0.09 0.10 0.11 0.10 0.09 0.09 0.09 0.08 0.06 0.06 0.06 0.07 0.07 0.07 0.08 0.08 0.08 0.08 0.08 0.08 0.08 0.07 0.06 0.06 0.06 0.07 0.08 0.08 0.08 0.08 0.08 0.08 0.08 0.08 0.09 0.09 0.09 0.10 0.10 0.10 0.10 0.10 0.10 0.09
0.10 0.09 0.08 0.07 0.07 0.07 0.09 0.09 0.10 0.10 0.10 0.10 0.10 0.09 0.09 0.08 0.08 0.06 0.04 0.05 0.06 0.07 0.06 0.07 0.08 0.07 0.08 0.07 0.07 0.08 0.08 0.07 0.07 0.07 0.07 0.08 0.07 0.08 0.08 0.09 0.09 0.09 0.09 0.09 0.09 0.09 0.09 0.09 0.10 0.10 0.10 0.10 0.10 0.09
0.07 0.07 0.07 0.06 0.08 0.08 0.08 0.08 0.09 0.10 0.09 0.09 0.09 0.09 0.08 0.08 0.05 0.04 0.04 0.05 0.06 0.06 0.07 0.08 0.08 0.08 0.08 0.08 0.08 0.08 0.09 0.08 0.07 0.06 0.07 0.08 0.08 0.08 0.09 0.09 0.09 0.09 0.10 0.09 0.09 0.09 0.09 0.10 0.10 0.10 0.09 0.09 0.09 0.09
0.06 0.07 0.07 0.07 0.08 0.08 0.09 0.08 0.09 0.09 0.09 0.09 0.09 0.09 0.08 0.06 0.05 0.04 0.05 0.06 0.06 0.07 0.08 0.09 0.09 0.09 0.09 0.09 0.09 0.09 0.09 0.09 0.09 0.08 0.08 0.08 0.08 0.08 0.08 0.08 0.08 0.08 0.10 0.10 0.10 0.09 0.09 0.09 0.09 0.09 0.09 0.09 0.09 0.10
0.06 0.06 0.07 0.09 0.09 0.09 0.09 0.10 0.11 0.10 0.09 0.08 0.08 0.07 0.06 0.05 0.05 0.06 0.07 0.08 0.08 0.09 0.09 0.09 0.09 0.09 0.09 0.10 0.10 0.10 0.10 0.10 0.09 0.09 0.09 0.09 0.10 0.10 0.10 0.09 0.08 0.09 0.10 0.11 0.11 0.11 0.10 0.09 0.09 0.09 0.09 0.09 0.09 0.10
0.07 0.07 0.07 0.08 0.09 0.10 0.10 0.11 0.10 0.09 0.09 0.09 0.07 0.06 0.06 0.06 0.06 0.08 0.09 0.09 0.08 0.08 0.08 0.08 0.07 0.08 0.08 0.09 0.09 0.09 0.09 0.09 0.09 0.09 0.09 0.09 0.09 0.10 0.10 0.10 0.10 0.11 0.12 0.12 0.12 0.11 0.11 0.11 0.10 0.10 0.10 0.10 0.09 0.10
0.07 0.08 0.08 0.08 0.09 0.11 0.11 0.10 0.10 0.10 0.09 0.08 0.06 0.06 0.07 0.08 0.08 0.08 0.08 0.08 0.08 0.07 0.07 0.07 0.07 0.08 0.08 0.08 0.09 0.09 0.09 0.09 0.08 0.08 0.08 0.08 0.08 0.10 0.11 0.11 0.11 0.11 0.11 0.11 0.11 0.12 0.12 0.11 0.11 0.11 0.10 0.10 0.10 0.10
0.07 0.09 0.09 0.10 0.11 0.11 0.12 0.11 0.10 0.09 0.08 0.07 0.07 0.07 0.07 0.07 0.08 0.08 0.08 0.08 0.08 0.08 0.08 0.08 0.08 0.09 0.08 0.09 0.09 0.09 0.10 0.10 0.10 0.09 0.08 0.08 0.09 0.10 0.10 0.10 0.10 0.10 0.11 0.11 0.10 0.10 0.10 0.10 0.10 0.09 0.09 0.09 0.09 0.09
0.08 0.09 0.10 0.11 0.11 0.12 0.11 0.09 0.07 0.07 0.06 0.06 0.06 0.06 0.06 0.07 0.07 0.08 0.09 0.09 0.09 0.09 0.09 0.09 0.09 0.09 0.08 0.08 0.08 0.08 0.08 0.09 0.09 0.10 0.10 0.09 0.09 0.10 0.10 0.10 0.10 0.11 0.11 0.10 0.10 0.09 0.09 0.09 0.08 0.08 0.08 0.08 0.08 0.08
0.10 0.11 0.11 0.11 0.10 0.09 0.08 0.06 0.05 0.05 0.05 0.05 0.06 0.06 0.06 0.06 0.06 0.08 0.09 0.10 0.10 0.09 0.10 0.09 0.09 0.08 0.09 0.09 0.09 0.09 0.09 0.09 0.09 0.09 0.09 0.09 0.10 0.10 0.10 0.11 0.11 0.11 0.11 0.10 0.10 0.09 0.09 0.08 0.08 0.08 0.08 0.08 0.08 0.08
0.12 0.12 0.11 0.09 0.07 0.05 0.05 0.05 0.05 0.05 0.06 0.06 0.06 0.06 0.06 0.06 0.06 0.08 0.10 0.11 0.11 0.10 0.09 0.09 0.09 0.09 0.09 0.09 0.08 0.09 0.09 0.09 0.09 0.10 0.10 0.10 0.11 0.11 0.11 0.10 0.11 0.11 0.10 0.09 0.09 0.08 0.07 0.07 0.07 0.07 0.07 0.07 0.07 0.08
Wind_Speed
12 13 15 17 18 19 20 22 24 25 26 28 29 28 27 26 25 23 21 20 19 19 18 18 16 15 16 15 14 13 14 16 17 18 18 17 18 18 18 17 17 18 18 18 20 20 23 18 18 20 19 18 18 18
12 14 16 18 19 20 22 23 25 27 29 31 32 32 30 29 28 26 23 23 22 21 20 19 18 18 18 18 18 17 16 15 15 17 17 16 18 17 17 18 18 18 19 17 20 18 18 16 17 19 21 20 19 20
13 15 17 19 20 21 24 26 29 31 33 35 36 36 34 33 31 29 27 26 24 23 22 21 19 19 18 19 19 19 18 19 19 19 19 18 20 19 19 20 19 21 21 22 21 21 21 21 21 21 21 21 22 23
14 16 18 20 22 24 27 30 33 36 38 40 40 40 38 36 34 31 28 27 25 24 24 21 21 19 18 17 19 20 21 21 21 22 22 22 22 21 21 21 22 20 21 22 23 22 23 23 23 23 22 22 22 23
16 18 19 22 25 28 31 34 36 39 41 43 43 40 37 34 31 26 23 22 21 21 21 21 21 21 21 20 19 20 22 23 23 23 23 23 23 24 24 24 24 24 24 25 24 25 26 24 25 25 25 25 25 24
18 19 21 24 27 30 33 36 38 40 42 43 40 35 32 29 23 19 16 15 18 17 18 19 19 19 19 20 21 20 20 21 22 23 23 24 24 24 25 25 24 24 25 25 25 24 23 23 24 24 24 25 25 25
19 21 24 27 29 31 34 36 38 41 42 40 35 32 27 22 18 17 16 19 19 14 13 13 15 16 17 17 17 17 18 19 20 21 22 23 23 25 26 25 24 24 24 24 25 26 25 26 25 24 24 25 25 26
21 23 26 27 29 32 34 37 39 40 40 37 32 26 22 18 17 15 15 17 13 8 9 9 11 13 16 17 18 19 20 20 20 21 22 22 23 23 23 24 25 24 24 22 22 23 23 23 24 24 25 26 26 27
23 24 26 28 30 32 35 38 40 40 39 32 27 23 18 17 14 13 15 14 13 10 7 9 11 10 14 14 15 16 17 17 19 19 20 22 21 21 22 22 20 21 21 21 21 22 22 23 24 24 25 26 26 28
24 25 27 29 31 33 36 38 40 39 34 28 24 19 16 15 15 13 11 11 12 11 11 11 13 13 14 15 13 15 14 14 15 16 18 18 18 19 20 20 21 21 21 22 23 23 23 23 24 24 25 25 25 26
25 25 27 29 32 34 37 39 39 37 28 24 21 17 16 15 12 11 12 12 13 11 13 15 15 16 15 15 16 14 14 14 14 14 15 15 14 16 17 17 18 19 19 19 20 20 21 22 22 22 23 23 24 25
26 26 28 30 32 35 38 39 38 32 26 23 19 15 14 14 12 11 12 13 13 13 17 17 18 18 17 17 15 15 15 15 15 17 16 16 16 17 17 16 16 17 17 17 18 19 20 20 21 23 24 26 27 29
25 26 28 31 33 35 37 37 35 29 23 19 16 14 13 13 13 13 15 14 15 17 17 19 19 19 18 17 16 16 15 15 17 16 16 16 16 15 15 15 16 17 19 20 22 23 25 26 27 28 29 30 31 32
26 28 29 31 33 35 36 35 31 25 21 17 15 14 12 13 14 15 16 17 17 18 20 21 20 19 20 18 17 17 16 17 17 17 16 15 15 15 16 18 20 21 23 25 26 26 27 29 30 31 32 32 33 35
27 28 29 30 33 35 35 33 27 23 19 15 15 12 13 15 15 17 18 19 19 20 21 21 21 20 20 19 17 17 17 15 16 15 15 15 17 18 20 21 22 23 24 25 26 28 29 30 31 32 33 34 34 35
28 28 28 32 33 34 33 29 24 20 17 15 13 14 15 16 17 19 20 21 21 21 22 21 20 20 19 18 18 17 17 17 17 18 18 18 19 20 20 21 22 23 25 26 27 29 30 31 31 32 31 31 30 30
27 27 31 32 34 33 29 25 22 18 16 16 16 16 16 18 19 20 21 22 22 22 21 21 20 20 21 20 19 18 18 18 19 19 19 20 20 21 21 22 22 23 25 26 26 26 26 26 26 26 26 25 24 24
27 30 31 32 32 28 25 23 19 17 17 17 17 17 19 20 22 22 23 23 23 22 22 22 23 22 21 21 20 20 20 21 21 20 20 21 20 20 21 21 21 22 22 22 22 22 21 20 20 19 19 19 20 20
30 30 30 31 28 24 23 20 20 18 18 18 19 20 21 23 23 24 24 26 25 24 23 23 23 23 22 22 22 22 22 22 21 20 20 20 19 19 19 20 20 20 19 19 19 18 18 19 19 19 19 19 20 21
29 29 29 26 24 23 21 20 20 19 19 21 22 22 23 24 25 25 26 26 25 24 24 24 24 24 24 23 22 21 21 20 19 19 19 19 18 18 18 18 18 17 17 17 17 18 19 20 20 20 21 22 22 23
27 26 23 24 23 22 20 20 20 21 23 22 24 25 24 25 26 26 26 27 25 25 26 25 25 24 22 21 20 20 19 19 19 19 19 17 16 16 15 15 15 15 14 15 16 18 20 21 22 23 24 24 25 26
25 22 22 24 21 21 19 20 22 24 25 25 25 25 26 26 26 26 27 26 26 25 24 24 23 21 20 20 19 19 20 19 19 18 16 15 14 14 13 13 13 13 15 17 20 22 24 26 26 26 26 26 26 26
21 22 23 22 21 21 21 24 25 26 25 25 26 26 25 28 27 27 26 27 26 25 23 21 20 20 20 19 20 20 19 18 17 16 15 14 14 13 13 13 14 16 19 21 23 25 27 28 28 27 26 26 26 26
21 22 22 21 22 22 24 26 26 26 26 26 27 28 28 28 29 27 28 27 25 22 20 20 19 20 21 21 21 20 19 18 17 16 15 15 14 14 15 16 18 19 22 24 26 27 29 28 27 26 26 25 25 24
21 22 22 23 23 24 26 28 28 28 28 27 29 29 27 28 28 28 28 25 21 19 20 21 22 24 22 22 21 20 19 19 18 17 17 17 16 17 18 20 21 23 25 27 28 29 29 29 28 26 25 24 24 24
22 24 23 23 25 26 28 29 29 30 30 30 28 29 28 29 28 26 24 22 20 21 24 26 27 26 25 24 23 21 21 20 20 19 19 19 20 21 22 23 25 27 29 29 30 31 31 30 28 27 27 27 27 27
24 25 24 25 28 29 31 32 33 31 29 28 28 27 27 26 26 24 23 23 25 27 29 29 28 27 26 24 23 22 21 21 21 21 21 21 23 24 25 27 29 31 32 32 33 33 32 31 30 29 30 29 28 28
27 26 25 27 30 32 33 33 30 29 28 27 27 27 26 26 28 28 28 28 30 32 32 29 26 24 23 22 21 20 21 21 21 21 23 25 27 28 30 32 32 34 34 35 34 33 32 32 32 31 31 30 29 28
27 27 29 31 33 33 32 30 30 30 30 30 30 31 31 29 28 29 30 30 28 24 22 21 20 20 19 19 19 19 19 19 20 21 23 24 25 26 28 30 33 34 34 34 33 33 32 31 30 28 28 28 28 28
29 30 32 34 33 33 31 31 33 33 32 33 33 32 30 29 27 27 25 22 19 19 19 18 18 18 18 18 19 20 20 22 23 23 24 26 27 30 32 33 33 32 32 32 31 30 29 27 27 28 30 29 27 26
32 34 35 35 34 34 34 34 34 34 34 32 30 29 27 26 24 21 19 18 18 18 18 19 20 20 21 23 23 24 25 24 24 27 29 31 32 32 31 31 31 30 29 27 26 25 26 27 28 28 27 26 26 26
35 35 35 35 35 34 34 34 33 32 30 28 25 24 23 21 20 19 18 18 18 20 21 21 22 24 26 27 27 27 28 29 30 30 30 30 30 29 28 28 26 25 23 24 25 26 27 27 27 26 25 24 24 24
36 35 35 35 33 33 33 34 31 29 26 24 22 21 21 20 20 20 19 19 20 21 23 25 26 28 28 29 30 30 29 29 29 29 28 26 25 25 25 22 22 21 23 24 23 23 24 24 23 22 22 22 22 22
Wind_Direction
355 357 357 355 351 350 348 347 346 344 343 341 339 336 332 329 325 318 307 304 297 290 290 290 285 278 277 272 268 264 257 255 250 249 252 252 252 249 252 250 245 241 240 246 244 250 255 250 246 249 260 260 252 246
351 351 350 349 347 345 344 344 342 341 339 336 334 331 327 323 320 314 303 300 295 287 286 283 281 279 275 272 269 261 264 262 254 253 256 257 255 255 258 254 253 251 251 251 248 254 257 259 257 257 260 257 256 253
344 344 344 344 344 342 340 338 336 334 332 330 328 325 321 317 314 309 300 297 290 284 281 278 278 275 277 272 266 264 261 262 259 258 259 258 256 254 255 256 256 254 254 256 256 256 258 258 261 263 262 260 260 257
338 338 338 338 338 336 334 332 331 330 329 327 325 322 317 313 309 305 297 295 286 281 277 277 276 272 277 275 268 263 263 262 261 259 259 259 260 260 262 262 260 261 256 257 259 259 258 260 261 261 261 262 262 261
334 335 334 333 333 333 331 331 330 330 329 328 326 323 320 317 313 306 300 298 291 279 276 271 268 279 276 273 275 270 265 263 261 260 259 260 261 261 263 262 259 266 265 263 264 266 264 263 261 260 261 262 262 260
333 332 332 331 331 331 332 332 332 332 332 331 330 329 328 327 324 318 310 302 311 294 277 271 268 277 280 275 272 271 270 265 263 263 262 262 262 263 262 262 267 267 267 266 264 266 263 262 263 262 261 262 263 262
333 333 332 332 332 333 333 334 334 335 335 335 335 334 334 335 337 333 325 316 312 293 286 279 273 276 282 277 275 274 272 267 266 264 264 265 264 264 264 265 269 269 268 267 266 264 263 265 263 262 263 264 264 265
332 332 333 333 334 334 335 335 336 336 336 336 337 339 340 340 339 342 348 347 340 323 311 299 291 285 296 284 279 279 274 269 270 267 266 268 265 265 266 269 268 267 265 267 268 266 264 262 264 264 264 264 266 267
330 331 333 334 334 335 336 336 336 337 336 337 338 339 341 344 348 347 347 359 9 6 355 346 331 312 314 302 291 285 282 276 273 271 270 268 268 267 270 268 266 267 266 265 266 267 267 266 267 267 268 268 268 269
328 329 331 333 334 335 336 337 337 337 338 339 340 340 342 342 339 343 348 351 354 356 358 351 337 325 321 316 306 302 292 285 278 279 275 271 269 268 270 268 266 266 267 269 266 268 269 269 269 269 270 270 270 269
327 327 329 332 333 334 335 336 336 336 335 337 338 338 336 338 341 343 348 349 344 345 343 339 337 330 326 316 309 304 297 292 285 287 282 277 274 277 273 268 268 266 269 271 270 270 271 271 269 270 270 271 271 271
324 325 328 330 331 333 334 336 337 336 334 332 331 332 335 342 339 344 342 340 343 338 335 333 332 329 323 318 310 306 297 292 289 290 282 279 282 277 272 270 269 269 270 271 273 274 275 274 274 273 274 274 274 275
326 326 328 329 331 332 334 336 337 336 334 333 333 332 332 335 346 339 336 332 330 330 331 329 328 326 322 319 310 306 299 295 293 289 287 286 281 276 272 270 271 272 273 275 276 277 277 277 277 277 277 277 277 277
324 325 326 329 331 332 334 335 336 336 335 333 331 330 331 332 332 329 326 324 324 322 323 323 321 321 320 316 312 306 303 297 292 289 289 282 278 275 274 276 278 278 278 279 280 279 279 279 279 279 279 279 279 280
325 325 326 329 331 332 333 333 333 334 332 330 327 326 325 323 324 326 325 322 319 318 319 318 316 316 315 311 311 307 302 298 298 295 290 283 280 280 281 282 282 283 283 284 284 283 283 282 282 282 281 281 281 282
325 325 328 329 330 331 331 331 331 329 329 326 324 319 318 318 319 321 321 320 321 318 317 316 316 315 313 312 307 303 301 297 296 294 291 287 284 285 286 287 288 288 289 289 289 288 287 286 285 284 284 282 282 282
326 326 327 329 330 331 332 330 330 330 327 324 320 317 316 317 319 321 321 322 321 318 316 315 313 314 314 308 305 302 300 300 296 294 291 289 287 287 288 289 290 292 294 294 294 293 292 291 289 287 285 284 283 283
325 325 326 328 330 330 331 333 331 328 327 322 318 317 315 315 316 317 319 321 319 317 314 311 310 307 305 305 303 301 299 299 298 294 292 291 290 289 289 291 293 296 298 298 299 298 297 296 294 291 289 287 286 286
324 324 326 328 330 330 331 330 330 327 324 322 318 316 314 315 315 316 316 318 315 313 312 311 308 307 304 302 301 300 300 299 297 296 294 292 291 289 290 293 295 297 299 301 302 302 301 299 296 294 292 290 289 289
323 324 326 328 330 330 329 328 327 325 323 322 318 317 316 315 316 315 315 315 313 311 309 308 306 306 305 304 302 302 301 300 298 297 295 294 291 290 290 293 296 298 300 302 303 304 304 301 298 295 292 290 291 290
323 325 326 328 329 331 328 327 326 324 322 320 319 318 317 317 316 316 315 315 311 309 308 307 306 305 305 304 303 302 301 299 298 297 298 294 290 290 292 293 295 298 301 305 307 311 312 308 304 299 295 292 291 291
322 324 325 327 328 329 328 326 324 322 319 318 317 318 316 317 318 317 316 313 312 312 309 310 308 306 304 303 302 302 303 299 298 297 294 291 289 290 290 291 294 299 303 306 307 308 309 308 306 301 297 294 293 292
320 323 324 325 326 326 323 324 323 323 320 319 319 318 318 318 318 318 315 314 313 312 312 311 310 309 307 304 302 302 304 300 296 293 290 289 288 288 288 290 294 299 304 308 310 310 311 309 306 303 300 297 294 292
320 323 323 323 323 320 321 322 322 321 319 318 318 317 319 319 318 316 315 315 313 311 310 309 308 312 309 306 302 298 298 297 293 290 285 285 284 283 285 292 298 302 304 308 310 312 313 311 308 306 303 299 296 294
320 321 321 319 320 321 321 321 321 320 317 318 317 316 318 319 318 316 316 316 311 309 311 311 309 306 305 306 304 298 293 293 290 284 282 278 280 285 287 291 296 301 306 308 310 311 312 311 308 305 303 300 298 297
317 317 318 316 318 319 321 321 320 319 318 317 316 317 317 318 318 316 317 317 314 313 313 311 309 306 301 299 301 297 293 289 287 283 282 277 279 284 288 292 297 301 304 305 307 309 309 308 305 302 302 300 299 298
315 313 313 313 316 318 317 318 318 315 314 314 316 316 317 316 315 317 317 315 313 311 311 310 307 304 300 298 298 294 292 292 286 284 282 282 283 286 288 292 296 300 302 303 304 305 304 303 301 300 299 298 296 294
314 313 310 312 314 315 315 316 315 314 315 315 316 313 312 311 312 313 311 312 311 311 309 309 307 304 301 299 298 295 295 295 291 288 286 285 286 288 290 293 296 299 301 302 302 302 301 300 300 299 297 296 295 295
313 312 312 313 314 314 313 312 312 313 313 311 311 310 309 310 310 310 311 313 314 315 317 318 317 314 310 307 304 302 299 297 296 295 294 294 295 296 297 298 300 301 301 302 302 302 301 301 300 300 300 300 298 295
310 311 312 313 312 312 312 312 312 312 311 310 310 309 308 308 309 311 313 315 318 321 322 323 323 323 321 317 314 311 307 303 300 298 298 299 299 300 301 301 301 302 302 302 302 301 301 301 301 301 302 301 300 298
311 311 311 311 310 312 312 311 311 311 311 310 309 307 308 309 309 310 311 313 316 319 320 321 320 320 318 316 313 310 308 307 304 303 302 301 302 302 302 302 302 303 303 303 303 302 303 304 304 304 303 302 301 299
310 310 310 310 310 311 311 312 312 312 312 310 309 308 308 308 306 306 304 308 312 314 315 316 316 316 317 316 313 310 307 306 306 305 305 304 304 304 305 305 306 307 305 305 305 305 306 305 305 304 302 302 302 303
309 309 309 309 310 312 313 313 313 312 311 311 309 308 307 307 305 307 302 302 307 312 315 314 314 314 315 315 314 312 311 309 308 308 308 308 307 308 308 308 310 311 311 311 310 311 312 311 310 309 308 306 305 304